Regional Weather Roundup
Issued by NWS Cleveland, OH

Home | Current Version | Previous Version | Graphics & Text | Print | Product List | Glossary On
Versions: 1 2 3 4 5 6 7 8 9 10 11 12 13 14 15 16 17 18 19 20 21 22 23 24 25 26 27 28 29 30 31 32 33 34 35 36 37 38 39 40 41 42 43 44 45 46 47 48 49 50
000
ASUS41 KCLE 280610
RWRCLE
OHIO REGIONAL WEATHER ROUNDUP
NATIONAL WEATHER SERVICE WILMINGTON, OH
200 AM EDT TUE APR 28 2015

NOTE: "FAIR" INDICATES FEW OR NO CLOUDS BELOW 12,000 FEET WITH NO
SIGNIFICANT WEATHER AND/OR OBSTRUCTIONS TO VISIBILITY.

OHZ001>008-015>018-024>027-034-035-043-044-280700-
   NORTHWEST OHIO

CITY           SKY/WX    TMP DP  RH WIND       PRES   REMARKS
DEFIANCE       CLEAR     36  32  85 CALM      30.10S
FINDLAY        CLEAR     37  31  78 CALM      30.08S
TOLEDO EXPRESS CLEAR     35  31  85 CALM      30.09S
TOLEDO EXEC    CLEAR     37  32  82 CALM      30.10R
LIMA           CLEAR     37  33  85 CALM      30.08S
$$

OHZ009>014-019>023-028>033-038-089-280700-
   NORTHEAST OHIO

CITY           SKY/WX    TMP DP  RH WIND       PRES   REMARKS
CLE-HOPKINS    MOCLDY    42  34  73 N5        30.09F
CLE-LAKEFRONT  MOCLDY    44  35  70 N7        30.07S
CUY CO. ARPT   NOT AVBL
LORAIN-ELYRIA  CLOUDY    40  34  79 CALM      30.09R
ASHTABULA      CLOUDY    41  35  79 N5        30.05S
AKRON-CANTON   PTCLDY    40  33  76 N6        30.05R
WOOSTER        PTCLDY    34  31  88 NW6       30.06S WCI  29
MANSFIELD      CLEAR     38  33  82 N8        30.06F
YOUNGSTOWN     MOCLDY    41  36  82 NW7       30.03S
$$

OHZ042-051>053-060>062-070>072-077>081-280700-
  SOUTHWEST OHIO

CITY           SKY/WX    TMP DP  RH WIND       PRES   REMARKS
CINC-COVINGTON CLEAR     47  36  65 E6        30.07R
CINC-LUNKEN    CLEAR     42  38  85 CALM      30.09S
HAMILTON       CLEAR     43  37  79 NE5       30.09S
DAYTON         CLEAR     41  36  82 NE6       30.09S
WRIGHT-PAT AFB CLEAR     40  35  83 CALM      30.08S
DAYTON GENERAL CLEAR     41  35  79 NE5       30.07S
WILMINGTON     CLEAR     38  33  82 NE6       30.07F
$$

OHZ036-037-039>041-045>050-054>059-063>069-073>076-082>088-280700-
  CENTRAL AND SOUTHEAST OHIO

CITY           SKY/WX    TMP DP  RH WIND       PRES   REMARKS
COLUMBUS       CLEAR     40  33  76 CALM      30.07S
OSU AIRPORT    CLEAR     38  33  82 W5        30.08R
BOLTON FIELD   CLEAR     37  33  89 CALM      30.07F
RICKENBACK AFB CLEAR     38  33  81 CALM      30.07S
NEWARK         PTCLDY    33  30  88 CALM      30.07R
MARION         CLEAR     35  31  85 NW5       30.08S
LANCASTER      CLEAR     33  31  92 CALM      30.08R
ZANESVILLE     CLOUDY    40  34  79 W3        30.06S
NEW PHILLY     PTCLDY    42  34  73 CALM      30.06S
$$



USA.gov is the U.S. government's official web portal to all federal, state and local government web resources and services.